Location: Middelsbur
(53.6609°N, 7.5020°E)
Time: 13:23:17
(UTC+00:00)

ALOS 2 - Pass Details

Date: 06 July 2020
Orbit: 630 x 632 km, 97.9° (Epoch: 07 August)

Event Time Altitude Azimuth Distance (km) Brightness Sun altitude
Exits shadow 22:19:05 16° 144° (SE) 1,636 4.1 -12.0°
Maximum altitude 22:22:25 57° 70° (ENE) 754 3.0 -12.2°
Drops below altitude 10° 22:26:44 10° 352° (N) 2,028 6.7 -12.4°
Sets 22:28:58 0° 348° (NNW) 2,940 8.1 -12.5°
